This is the latest recevied weather packets stored in our database for station/object HB9FHL-13. If no packets are shown the sender has not sent any weather packets the latest 10 day(s).
| Time | Temp. | Humidity | Pressure | Rain* | Wind** | Luminosity | Snow |
|---|---|---|---|---|---|---|---|
| 1777527599 | 8.33° C | - | 1022.4 hPa | 0 mm | - | - | - |
| 1777526996 | 7.22° C | - | 1019.6 hPa | 0 mm | - | - | - |
| 1777526695 | 7.78° C | - | 1022.2 hPa | 0 mm | - | - | - |
| 1777526395 | 6.67° C | - | 1022.6 hPa | 0 mm | - | - | - |
| 1777526090 | 6.67° C | - | 1023.2 hPa | 0 mm | - | - | - |
| 1777525793 | 7.78° C | - | 1018.6 hPa | 0 mm | - | - | - |
| 1777525489 | 7.22° C | - | 1021.7 hPa | 0 mm | - | - | - |
| 1777525188 | 7.78° C | - | 1021.8 hPa | 0 mm | - | - | - |
| 1777524886 | 7.78° C | - | 1023 hPa | 0 mm | - | - | - |
| 1777524586 | 7.78° C | - | 1022.7 hPa | 0 mm | - | - | - |
| 1777524284 | 7.22° C | - | 1020.4 hPa | 0 mm | - | - | - |
| 1777523984 | 6.67° C | - | 1017.7 hPa | 0 mm | - | - | - |
| 1777523685 | 7.22° C | - | 1020.7 hPa | 0 mm | - | - | - |
| 1777523382 | 7.22° C | - | 1022.3 hPa | 0 mm | - | - | - |
| 1777523082 | 7.22° C | - | 1018.5 hPa | 0 mm | - | - | - |
| 1777522781 | 6.67° C | - | 1021 hPa | 0 mm | - | - | - |
| 1777522481 | 7.78° C | - | 1020.1 hPa | 0 mm | - | - | - |
| 1777522180 | 7.78° C | - | 1019.6 hPa | 0 mm | - | - | - |
| 1777521880 | 7.22° C | - | 1022.5 hPa | 0 mm | - | - | - |
| 1777521584 | 7.22° C | - | 1021.4 hPa | 0 mm | - | - | - |
| 1777521279 | 7.78° C | - | 1022.5 hPa | 0 mm | - | - | - |
| 1777520978 | 8.33° C | - | 1025.2 hPa | 0 mm | - | - | - |
| 1777520678 | 7.78° C | - | 1021 hPa | 0 mm | - | - | - |
| 1777520457 | 8.89° C | - | 1019.3 hPa | 0 mm | - | - | - |
| 1777520375 | 8.89° C | - | 1019.3 hPa | 0 mm | - | - | - |
* Rain since midnight (hover to see other rain measurements)
** Current wind speed in m/s (hover to see current wind gust speed)